Погода в Якунине

Россия / Курская область     51°41′33″N   36°23′32″E
темп.,
°C
ветер,
м/с
пор.,
м/с
влажн.,
%
обл.,
%
осадки,
мм/ч
давл.,
гПа
погр.,
м
28 ноября, вс
вс2800:00+4ю41098100 0.1 1004268
03:00+4ю369968 0.1 1005137
06:00+3ююз339839 0.0 100637
09:00+3ююз239872 0.0 100745
12:00+6юз249149 0.0 1008236
15:00+7ююв228818 0.0 100952
18:00+4юв489694 0.0 1009173
21:00+5юв41092100 0.0 1008256
29 ноября, пн
пн2900:00+5юв41194100 0.0 1008264
03:00+4вюв4896100 0.0 1006183
06:00+5в3798100 0.3 1003156
09:00+5вюв3799100 1.1 1001251
12:00+6ююв2699100 0.0 1000231
15:00+7ююв51198100 0.0 998417
18:00+8вюв4898100 3.2 993233
21:00+9ююв61496100 7.4 986660
30 ноября, вт
вт3000:00+11ю101886100 7.6 9791231
03:00+9ююз71593100 12.2 980903
06:00+4юз132086100 1.8 982949
09:00+1зюз142294100 2.0 9861326
12:00+2зюз132175100 1.7 9901222
15:00+2зюз111867100 1.7 9921237
18:00+2юз91569100 0.0 9941408
21:000зюз8138161 0.1 9951128
1 декабря, ср
ср100:000з7127774 0.1 9951084
03:00−1з71071100 0.1 9961038
06:00−1з61072100 0.1 9961074
09:00−2з5972100 0.1 9971139
12:00−1зюз6881100 0.1 998807
15:00−1юз4793100 0.6 997550
18:00−1юз369766 0.3 998292
21:00−2з389443 0.4 1000370
2 декабря, чт
чт200:00−3з49865 0.0 1002523
03:00−3юз489090 0.0 1004435
06:00−2ююз5108098 0.0 1004510
09:00−1ю61496100 0.3 1002641
12:00+1юз71697100 0.9 1002718
15:00+3юз71485100 0.9 1002732
18:00+2юз61290100 0.0 1004579
21:00+2юз6139097 0.0 1005445